Other Surface Observations
Issued by NWS

Current Version | Previous Version | Text Only | Print | Product List | Glossary On
Versions: 1 2 3 4 5 6 7 8 9 10 11 12 13 14 15 16 17 18 19 20 21 22 23 24 25 26 27 28 29 30 31 32 33 34 35 36 37 38 39 40 41 42 43 44 45 46 47 48 49 50
399
SXUS52 KTAE 271218
OSOTAE
OSOTAE
North Florida/South Alabama/Southwest Georgia Weather Roundup
National Weather Service Tallahassee Florida
800 AM EDT MON MAR 27 2017

Note: "fair" indicates few or no clouds below 12,000 feet with no
significant weather and/or obstructions to visibility.

!FLZ017-115-028-034-025-271300
...North Florida...

CITY           SKY/WX    TMP DP  RH WIND       PRES   REMARKS
TALLAHASSEE    PTCLDY    58  58 100 CALM      30.10S FOG
APALACHICOLA   PTCLDY    66  66 100 SE5       30.08R
PERRY            N/A     59  57  94 SE3       30.12R FOG
CROSS CITY     PTCLDY    55  54  94 CALM      30.11R
JACKSONVILLE   CLEAR     56  56 100 CALM      30.12R
$$

!FLZ112-006-005-002-011-271300
...Florida Panhandle...

CITY           SKY/WX    TMP DP  RH WIND       PRES   REMARKS
MARIANNA       FOG       59  59 100 CALM      30.09R VSB<1/4
BONIFAY        CLOUDY    61  61 100 CALM      30.11  FOG
PANAMA CITY NW CLOUDY    64  63  96 E5        30.09R FOG
TYNDALL AFB    FOG       63  63 100 CALM      30.09R VSB 1/4
TYND DRONE APT FOG       62  63 100 CALM      30.08S VSB 1/8
DE FUNIAK SPR  CLOUDY    64  64 100 CALM      30.09R
EGLIN AFB      FOG       67  67 100 SE3       30.07R VSB 1/8
DESTIN         FOG       68  68 100 SE6       30.07R VSB 1/4
HURLBURT       NOT AVBL
CRESTVIEW      CLOUDY    66  65  96 CALM      30.08R FOG
PENSACOLA      CLOUDY    70  67  90 S3        30.06R
$$

!ALZ063-066-271300
...South Alabama...

CITY           SKY/WX    TMP DP  RH WIND       PRES   REMARKS
DOTHAN         FOG       62  62 100 E5        30.13R VSB 1/8
OZARK CAIRNS   CLOUDY    64  62  96 CALM      30.09R
FT RUCKER HELI CLOUDY    64  63  97 CALM      30.09R
RUCKER HELI 3  CLOUDY    64  63  94 CALM      30.09R
RUCKER HELI 2  CLOUDY    64  63  97 CALM      30.09R
FLORALA APT    CLOUDY    65  62  90 CALM      30.10R
ANDALUSIA      CLOUDY    65  62  90 SE3       30.08R FOG
TROY           PTCLDY    61  61 100 CALM      30.10R FOG
EUFALA         CLOUDY    65  63  93 CALM      30.09R FOG
MOBILE         CLOUDY    69  66  90 SE3       30.05R
$$

!GAZ120>161-271300
...Southwest and South Central Georgia...

CITY           SKY/WX    TMP DP  RH WIND       PRES   REMARKS
THOMASVILLE    FAIR      59  59 100 CALM      30.12R
BAINBRIDGE       N/A     61  61 100 CALM      30.10R
MOODY AFB      CLEAR     56  55  95 CALM      30.10R
VALDOSTA       CLEAR     54  54 100 CALM      30.11R
MOULTRIE       CLEAR     59  57  94 CALM      30.11S
BLAKELY        CLOUDY    64  63  94 CALM      30.11R FOG
ALBANY         CLEAR     60  60 100 CALM      30.12R FOG
TIFTON         FAIR      57  57 100 SE3       30.11R
FITZGERALD     FAIR      56  56 100 CALM      30.13R
CORDELE        CLOUDY    67  63  87 CALM      30.12R
AMERICUS       FOG       61  61 100 CALM      30.13R VSB 1
HOMERVILLE     FAIR      59  59 100 CALM      30.13R
$$

!GMZ750-755-770-775-271300
...Coastal and Buoy Obs...

STATION/POSITION TIME  TEMP    WIND        PRES    VSBY  WAVE
                       AIR SEA DIR/SP/G                  HT/PER
                 (UTC) (F)     (DEG/KT/KT) (MB)    (MI)  (FT/S)
KEATON BEACH     1200   61      90/  7/  8 1019.1R
CEDAR KEY        1200   69     150/ 11/ 12 1019.8R
C TOWER          1200   68     120/  8/  9 1019.3R
APALACHICOLA BUO 1150   70 69  100/  8/ 10 1018.3R         2/ 6
PANAMA CITY BUOY 1150   71 71              1018.3R         2/ 7
MOBILE BUOY      1200   72 73  160/ 10/ 12 1017.0
ORANGE BCH AL BU 1150   69 69  150/  6/  8 1017.2R         3/ 5
$$




USA.gov is the U.S. government's official web portal to all federal, state and local government web resources and services.